This is the latest recevied weather packets stored in our database for station/object HUGOCO. If no packets are shown the sender has not sent any weather packets the latest 10 day(s).
| Time | Temp. | Humidity | Pressure | Rain* | Wind** | Luminosity | Snow |
|---|---|---|---|---|---|---|---|
| 1777403181 | 8.89° C | 70% | 1019.4 hPa | 0 mm | - | - | - |
| 1777402880 | 8.89° C | 72% | 1019.5 hPa | 0 mm | - | - | - |
| 1777402580 | 8.33° C | 72% | 1019.5 hPa | 0 mm | - | - | - |
| 1777402281 | 8.33° C | 73% | 1019.5 hPa | 0 mm | - | - | - |
| 1777401981 | 7.78° C | 73% | 1019.7 hPa | 0 mm | - | - | - |
| 1777401681 | 8.33° C | 75% | 1019.8 hPa | 0 mm | - | - | - |
| 1777401381 | 7.78° C | 75% | 1019.9 hPa | 0 mm | - | - | - |
| 1777401081 | 7.22° C | 76% | 1020.1 hPa | 0 mm | - | - | - |
| 1777400781 | 7.22° C | 77% | 1020.2 hPa | 0 mm | - | - | - |
| 1777400481 | 6.67° C | 77% | 1020.2 hPa | 0 mm | - | - | - |
| 1777400181 | 6.67° C | 78% | 1020.3 hPa | 0 mm | - | - | - |
| 1777399881 | 6.11° C | 79% | 1020.4 hPa | 0 mm | - | - | - |
| 1777399581 | 6.11° C | 80% | 1020.3 hPa | 0 mm | - | - | - |
| 1777399281 | 6.11° C | 81% | 1020.3 hPa | 0 mm | - | - | - |
| 1777398981 | 5.56° C | 81% | 1020.5 hPa | 0 mm | - | - | - |
| 1777398681 | 5° C | 82% | 1020.6 hPa | 0 mm | - | - | - |
| 1777398381 | 5° C | 83% | 1020.5 hPa | 0 mm | - | - | - |
| 1777398081 | 5° C | 83% | 1020.5 hPa | 0 mm | - | - | - |
| 1777397781 | 5° C | 83% | 1020.5 hPa | 0 mm | - | - | - |
| 1777397481 | 4.44° C | 84% | 1020.7 hPa | 0 mm | - | - | - |
| 1777397181 | 4.44° C | 84% | 1020.8 hPa | 0 mm | - | - | - |
| 1777396881 | 4.44° C | 85% | 1020.7 hPa | 0 mm | - | - | - |
| 1777396581 | 3.89° C | 85% | 1020.8 hPa | 0 mm | - | - | - |
| 1777396281 | 4.44° C | 87% | 1020.8 hPa | 0 mm | - | - | - |
| 1777395981 | 3.89° C | 87% | 1020.8 hPa | 0 mm | - | - | - |
* Rain latest hour (hover to see other rain measurements)
** Current wind speed in m/s (hover to see current wind gust speed)